DG7AA-13 Weather Reports


Display with metric or nautical units.
time (UTC)temp
F
wind
direction
speed
MPH
gust
MPH
rain 1hr
in
rain 24hr
in
rain mn
in
humidity
%
barometer
mb
20260831200028 59 70 1.0 4.0 0.00 0.15 0.15 90
20260831195020 59 159 1.0 2.0 0.00 0.15 0.15 90
20260831194030 59 178 0.0 2.0 0.00 0.15 0.15 89
20260831193020 60 169 0.0 2.0 0.00 0.15 0.15 89
20260831192032 60 164 0.0 1.0 0.00 0.15 0.15 91
20260831191020 59 115 0.0 2.0 0.00 0.15 0.15 91
20260831190024 59 0.0 0.0 0.00 0.15 0.15 91
20260831185020 59 34 0.0 1.0 0.00 0.15 0.15 90
20260831184022 60 107 0.0 1.0 0.00 0.15 0.15 90
20260831183020 60 31 0.0 2.0 0.00 0.15 0.15 88
20260831182028 61 145 1.0 4.0 0.00 0.15 0.15 88
20260831181022 61 103 1.0 4.0 0.00 0.15 0.15 88
20260831180028 61 49 1.0 4.0 0.00 0.15 0.15 88
20260831175020 61 91 0.0 4.0 0.00 0.15 0.15 89
20260831174028 61 60 0.0 2.0 0.00 0.15 0.15 90
20260831173020 61 95 1.0 4.0 0.00 0.15 0.15 91
20260831172021 61 62 0.0 2.0 0.00 0.15 0.15 90
20260831171020 61 325 1.0 2.0 0.00 0.15 0.15 90
20260831170028 61 45 1.0 9.0 0.00 0.15 0.15 90
20260831165021 61 274 1.0 2.0 0.01 0.15 0.15 90
20260831164029 61 110 1.0 4.0 0.04 0.15 0.15 89
20260831163022 62 19 0.0 2.0 0.08 0.15 0.15 92
20260831162030 62 344 0.0 2.0 0.08 0.15 0.15 92
20260831161022 61 346 3.0 5.0 0.08 0.15 0.15 91
20260831160028 62 1 2.0 5.0 0.08 0.15 0.15 92
20260831155021 62 38 1.0 4.0 0.07 0.14 0.14 92
20260831154028 63 332 3.0 4.0 0.12 0.12 0.12 90
20260831153021 63 340 1.0 4.0 0.07 0.07 0.07 91
20260831152029 64 341 1.0 2.0 0.07 0.07 0.07 90
20260831151020 64 340 2.0 3.0 0.07 0.07 0.07 90
20260831150030 64 340 2.0 3.0 0.07 0.07 0.07 90
20260831145020 65 351 2.0 4.0 0.07 0.07 0.07 86
20260831144030 67 353 2.0 8.0 0.00 0.00 0.00 75
20260831143022 68 3 3.0 6.0 0.00 0.00 0.00 70
20260831142028 73 20 2.0 5.0 0.00 0.00 0.00 60
20260831141020 73 176 2.0 7.0 0.00 0.00 0.00 59
20260831140028 73 187 2.0 6.0 0.00 0.00 0.00 58
20260831135020 73 121 3.0 12.0 0.00 0.00 0.00 57
20260831134028 74 177 3.0 10.0 0.00 0.00 0.00 56
20260831133020 75 251 2.0 7.0 0.00 0.00 0.00 58
20260831132025 74 244 2.0 7.0 0.00 0.00 0.00 59
20260831131020 72 171 1.0 5.0 0.00 0.00 0.00 60
20260831130028 71 278 2.0 7.0 0.00 0.00 0.00 63
20260831125020 72 233 3.0 8.0 0.00 0.00 0.00 59
20260831124028 72 208 2.0 7.0 0.00 0.00 0.00 59
20260831123020 73 197 1.0 5.0 0.00 0.00 0.00 60
20260831122030 72 165 2.0 5.0 0.00 0.00 0.00 59
20260831121021 72 244 2.0 8.0 0.00 0.00 0.00 60
20260831120024 72 83 3.0 7.0 0.00 0.00 0.00 61
20260831115021 73 132 2.0 4.0 0.00 0.00 0.00 57
20260831114031 74 105 2.0 4.0 0.00 0.00 0.00 55
20260831113020 74 339 2.0 7.0 0.00 0.00 0.00 57
20260831112028 74 171 2.0 6.0 0.00 0.00 0.00 56
20260831111023 76 146 2.0 7.0 0.00 0.00 0.00 57
20260831110029 75 166 2.0 4.0 0.00 0.00 0.00 60
20260831105020 74 245 3.0 9.0 0.00 0.00 0.00 60
20260831104030 73 168 2.0 8.0 0.00 0.00 0.00 64
20260831103022 73 172 3.0 6.0 0.00 0.00 0.00 62
20260831102020 73 111 2.0 7.0 0.00 0.00 0.00 62
20260831101021 72 226 2.0 7.0 0.00 0.00 0.00 66
20260831100030 70 92 3.0 10.0 0.00 0.00 0.00 68
20260831095022 70 102 1.0 5.0 0.00 0.00 0.00 72
20260831094029 70 247 2.0 8.0 0.00 0.00 0.00 69
20260831093022 73 227 2.0 7.0 0.00 0.00 0.00 64
20260831092030 72 158 1.0 5.0 0.00 0.00 0.00 67
20260831091020 72 165 2.0 7.0 0.00 0.00 0.00 68
20260831090030 72 89 1.0 4.0 0.00 0.00 0.00 69
20260831085021 71 202 1.0 7.0 0.00 0.00 0.00 71
20260831084030 71 119 2.0 5.0 0.00 0.00 0.00 73
20260831083020 70 74 2.0 4.0 0.00 0.00 0.00 76
20260831082029 69 180 2.0 4.0 0.00 0.00 0.00 79
20260831081021 67 119 2.0 5.0 0.00 0.00 0.00 83
20260831080027 65 163 1.0 2.0 0.00 0.00 0.00 89
20260831075021 65 144 1.0 3.0 0.00 0.00 0.00 89
20260831074030 64 142 1.0 2.0 0.00 0.00 0.00 90
20260831073020 64 187 1.0 3.0 0.00 0.00 0.00 89
20260831072028 64 167 1.0 5.0 0.00 0.00 0.00 87
20260831071022 64 169 1.0 4.0 0.00 0.00 0.00 86
20260831070028 64 157 1.0 3.0 0.00 0.00 0.00 86
20260831065020 64 145 1.0 4.0 0.00 0.00 0.00 87
20260831064030 64 206 1.0 5.0 0.00 0.00 0.00 87
20260831063023 64 208 2.0 5.0 0.00 0.00 0.00 88
20260831062029 63 212 1.0 5.0 0.00 0.00 0.00 88
20260831061020 63 49 1.0 7.0 0.00 0.00 0.00 90
20260831060028 62 163 2.0 4.0 0.00 0.00 0.00 92
20260831055020 61 142 0.0 2.0 0.00 0.00 0.00 93
20260831054030 60 185 0.0 2.0 0.00 0.00 0.00 93
20260831053022 60 214 0.0 1.0 0.00 0.00 0.00 93
20260831052028 60 155 1.0 3.0 0.00 0.00 0.00 93
20260831051020 60 157 1.0 2.0 0.00 0.00 0.00 93
20260831050022 59 201 1.0 3.0 0.00 0.00 0.00 93
20260831045021 60 175 1.0 2.0 0.00 0.00 0.00 92
20260831044028 60 184 1.0 3.0 0.00 0.00 0.00 92
20260831043021 60 169 1.0 3.0 0.00 0.00 0.00 91
20260831042029 60 180 1.0 2.0 0.00 0.00 0.00 90
20260831041024 61 151 2.0 4.0 0.00 0.00 0.00 89
20260831040031 61 146 3.0 7.0 0.00 0.00 0.00 89
20260831035023 60 149 2.0 4.0 0.00 0.00 0.00 90
20260831034030 60 143 2.0 4.0 0.00 0.00 0.00 90
20260831033020 60 148 2.0 4.0 0.00 0.00 0.00 90
20260831032020 59 139 1.0 2.0 0.00 0.00 0.00 91
20260831031021 59 143 0.0 2.0 0.00 0.00 0.00 91
20260831030029 59 170 0.0 2.0 0.00 0.00 0.00 92
20260831025023 59 180 1.0 3.0 0.00 0.00 0.00 92
20260831024028 59 148 0.0 1.0 0.00 0.00 0.00 92
20260831023021 59 230 0.0 2.0 0.00 0.00 0.00 92
20260831022030 59 168 1.0 2.0 0.00 0.00 0.00 92
20260831021020 59 179 0.0 2.0 0.00 0.00 0.00 92
20260831020029 59 130 0.0 2.0 0.00 0.00 0.00 93
20260831015022 59 152 0.0 2.0 0.00 0.00 0.00 94
20260831014028 58 143 0.0 2.0 0.00 0.00 0.00 94
20260831013022 58 0.0 0.0 0.00 0.00 0.00 94
20260831012030 58 0.0 0.0 0.00 0.00 0.00 94
20260831011024 58 0.0 0.0 0.00 0.00 0.00 93
20260831010030 58 0.0 0.0 0.00 0.00 0.00 93
20260831005020 58 0.0 0.0 0.00 0.00 0.00 92
20260831004029 59 0.0 0.0 0.00 0.00 0.00 91
20260831003020 59 0.0 0.0 0.00 0.00 0.00 91
20260831002032 59 148 0.0 2.0 0.00 0.00 0.00 91
20260831001020 59 164 0.0 3.0 0.00 0.00 0.00 91
20260831000028 59 150 0.0 2.0 0.00 0.00 0.00 91
20260830235020 59 209 0.0 1.0 0.00 0.00 0.00 91
20260830234024 59 0.0 0.0 0.00 0.00 0.00 91
20260830233020 59 142 0.0 1.0 0.00 0.00 0.00 91
20260830232028 59 148 0.0 2.0 0.00 0.00 0.00 92
20260830231020 59 143 0.0 2.0 0.00 0.00 0.00 92
20260830230029 59 191 0.0 1.0 0.00 0.00 0.00 92
20260830225020 59 0.0 0.0 0.00 0.00 0.00 92
20260830224030 58 217 0.0 1.0 0.00 0.00 0.00 92
20260830223020 58 0.0 0.0 0.00 0.00 0.00 92
20260830222029 58 0.0 0.0 0.00 0.00 0.00 92
20260830221020 58 0.0 0.0 0.00 0.00 0.00 91
20260830220024 58 0.0 0.0 0.00 0.00 0.00 90
20260830215020 58 0.0 0.0 0.00 0.00 0.00 90
20260830214028 59 0.0 0.0 0.00 0.00 0.00 90
20260830213021 59 0.0 0.0 0.00 0.00 0.00 89
20260830212028 59 0.0 0.0 0.00 0.00 0.00 89
20260830211025 60 0.0 0.0 0.00 0.00 0.00 89
20260830210029 60 0.0 0.0 0.00 0.00 0.00 88
20260830205021 60 0.0 0.0 0.00 0.00 0.00 88
20260830204030 60 0.0 0.0 0.00 0.00 0.00 87
20260830203020 60 0.0 0.0 0.00 0.00 0.00 88
20260830202022 61 234 0.0 1.0 0.00 0.00 0.00 87
20260830201021 60 0.0 0.0 0.00 0.00 0.00 87